DW9686 Weather Reports


time (UTC)temp
C
wind
direction
speed
KPH
gust
KPH
rain 1hr
cm
rain 24hr
cm
rain mn
cm
humidity
%
barometer
mb
20260906093040 11 298 14.5 19.3 0.00 0.00 0.00 79 1014.9
20260906091543 11 340 8.0 14.5 0.00 0.00 0.00 78 1014.8
20260906090056 11 340 6.4 14.5 0.00 0.00 0.00 77 1014.9
20260906084538 11 342 8.0 14.5 0.00 0.00 0.00 77 1014.8
20260906083038 11 342 3.2 9.7 0.00 0.00 0.00 77 1015.3
20260906081539 11 342 6.4 12.9 0.00 0.00 0.00 77 1015.4
20260906080038 12 343 6.4 16.1 0.00 0.00 0.00 76 1015.4
20260906074536 12 347 8.0 16.1 0.00 0.00 0.00 76 1015.6
20260906073040 12 350 4.8 14.5 0.00 0.00 0.00 75 1015.6
20260906071537 12 360 4.8 11.3 0.00 0.00 0.00 74 1015.6
20260906070041 12 22 1.6 6.4 0.00 0.00 0.00 75 1015.7
20260906064535 13 23 1.6 6.4 0.00 0.00 0.00 75 1015.7
20260906063047 13 0 0.0 6.4 0.00 0.00 0.00 75 1015.6
20260906061538 13 23 1.6 6.4 0.00 0.00 0.00 76 1015.7
20260906060039 13 23 3.2 6.4 0.00 0.00 0.00 75 1015.7
20260906054541 14 23 3.2 8.0 0.00 0.00 0.00 75 1015.8
20260906053037 15 24 3.2 6.4 0.00 0.00 0.00 74 1015.9
20260906051552 15 24 1.6 6.4 0.00 0.00 0.00 73 1015.9
20260906050049 16 40 6.4 16.1 0.00 0.00 0.00 69 1016.0
20260906044546 17 191 3.2 6.4 0.00 0.00 0.00 68 1015.7
20260906043047 17 189 1.6 6.4 0.00 0.00 0.00 68 1015.7
20260906041536 17 189 3.2 4.8 0.00 0.00 0.00 66 1015.8
20260906040038 17 189 4.8 6.4 0.00 0.00 0.00 65 1015.7
20260906034540 17 188 4.8 6.4 0.00 0.00 0.00 66 1015.7
20260906033037 18 0 0.0 0.0 0.00 0.00 0.00 63 1015.6
20260906031546 18 0 0.0 0.0 0.00 0.00 0.00 61 1015.5
20260906030039 19 0 0.0 0.0 0.00 0.00 0.00 60 1015.2
20260906024542 20 0 0.0 0.0 0.00 0.00 0.00 53 1015.2
20260906023037 20 0 0.0 0.0 0.00 0.00 0.00 57 1015.1
20260906021544 20 0 0.0 0.0 0.00 0.00 0.00 54 1015.2
20260906020042 21 0 0.0 0.0 0.00 0.00 0.00 55 1015.2
20260906014541 21 0 0.0 0.0 0.00 0.00 0.00 49 1015.3
20260906013055 22 0 0.0 0.0 0.00 0.00 0.00 53 1015.2
20260906011547 22 0 0.0 0.0 0.00 0.00 0.00 50 1015.3
20260906010043 22 0 0.0 4.8 0.00 0.00 0.00 47 1015.4
20260906004539 22 184 0.0 6.4 0.00 0.00 0.00 53 1015.3
20260906003041 22 184 1.6 6.4 0.00 0.00 0.00 51 1015.4
20260906001544 22 184 3.2 8.0 0.00 0.00 0.00 50 1015.4
20260906000047 22 184 3.2 8.0 0.00 0.00 0.00 51 1015.4
20260905234539 22 184 3.2 9.7 0.00 0.00 0.00 49 1015.5
20260905233043 22 267 1.6 6.4 0.00 0.00 0.00 47 1015.4
20260905231542 22 267 4.8 9.7 0.00 0.00 0.00 49 1015.5
20260905230042 22 0 0.0 3.2 0.00 0.00 0.00 47 1015.5
20260905224536 22 0 0.0 4.8 0.00 0.00 0.00 50 1015.6
20260905223041 22 267 3.2 11.3 0.00 0.00 0.00 50 1015.7
20260905221540 22 0 0.0 6.4 0.00 0.00 0.00 49 1015.7
20260905220041 22 290 3.2 6.4 0.00 0.00 0.00 49 1016.0
20260905214539 22 294 1.6 14.5 0.00 0.00 0.00 51 1016.1
20260905213040 21 283 3.2 14.5 0.00 0.00 0.00 51 1016.2
20260905211539 21 284 3.2 8.0 0.00 0.00 0.00 53 1016.2
20260905210047 21 284 6.4 16.1 0.00 0.00 0.00 55 1016.3
20260905204537 21 308 4.8 11.3 0.00 0.00 0.00 56 1016.3
20260905203049 21 319 4.8 9.7 0.00 0.00 0.00 56 1016.4
20260905201540 20 327 4.8 12.9 0.00 0.00 0.00 57 1016.4
20260905200037 20 360 1.6 11.3 0.00 0.00 0.00 58 1016.7
20260905194535 20 293 4.8 11.3 0.00 0.00 0.00 60 1016.8
20260905193036 19 330 6.4 14.5 0.00 0.00 0.00 61 1016.8
20260905191542 18 5 4.8 14.5 0.00 0.00 0.00 64 1016.8
20260905190038 18 306 4.8 12.9 0.00 0.00 0.00 64 1017.0
20260905184545 17 348 3.2 12.9 0.00 0.00 0.00 65 1017.2
20260905183033 17 305 4.8 12.9 0.00 0.00 0.00 66 1017.5
20260905181544 17 342 3.2 14.5 0.00 0.00 0.00 67 1017.7
20260905180041 17 333 4.8 17.7 0.00 0.00 0.00 68 1017.8
20260905174537 16 338 6.4 16.1 0.00 0.00 0.00 68 1017.7
20260905173040 16 360 4.8 14.5 0.00 0.00 0.00 70 1017.8
20260905171550 15 352 4.8 9.7 0.00 0.00 0.00 70 1017.9
20260905170043 15 352 3.2 14.5 0.00 0.00 0.00 72 1017.8
20260905164544 15 340 6.4 16.1 0.00 0.00 0.00 72 1017.8
20260905163052 14 352 9.7 17.7 0.00 0.00 0.00 74 1017.5
20260905161542 13 340 6.4 17.7 0.00 0.00 0.00 76 1017.3
20260905160038 13 18 9.7 16.1 0.00 0.00 0.00 77 1017.3
20260905154549 13 352 8.0 17.7 0.00 0.00 0.00 80 1017.4
20260905153038 12 318 3.2 12.9 0.00 0.00 0.00 80 1017.6
20260905151540 12 323 3.2 16.1 0.00 0.00 0.00 81 1017.5
20260905150045 12 348 6.4 17.7 0.00 0.00 0.00 82 1017.2
20260905144540 11 338 6.4 12.9 0.00 0.00 0.00 84 1017.4
20260905143042 11 0 0.0 3.2 0.00 0.00 0.00 84 1017.8
20260905141541 11 0 1.6 4.8 0.00 0.00 0.00 84 1017.6
20260905140038 11 0 1.6 6.4 0.00 0.00 0.00 82 1017.5
20260905134543 11 337 4.8 12.9 0.00 0.00 0.00 81 1017.1
20260905133038 11 333 6.4 12.9 0.00 0.00 0.00 83 1016.6
20260905131540 11 331 4.8 8.0 0.00 0.00 0.00 84 1016.6
20260905130040 11 331 3.2 6.4 0.00 0.00 0.00 83 1016.5
20260905124537 11 331 4.8 9.7 0.00 0.00 0.00 84 1016.4
20260905123043 11 331 1.6 6.4 0.00 0.00 0.00 83 1016.5
20260905121539 11 331 4.8 8.0 0.00 0.00 0.00 82 1016.3
20260905120050 11 331 4.8 8.0 0.00 0.00 0.00 82 1016.2
20260905114538 12 331 4.8 8.0 0.00 0.00 0.00 81 1016.2
20260905113037 12 331 4.8 9.7 0.00 0.00 0.00 80 1016.2
20260905111545 12 331 4.8 8.0 0.00 0.00 0.00 80 1016.0
20260905110108 12 331 3.2 8.0 0.00 0.00 0.00 79 1016.0
20260905104551 12 331 1.6 8.0 0.00 0.00 0.00 77 1016.0
20260905103039 12 328 6.4 14.5 0.00 0.00 0.00 78 1015.8
20260905101538 12 327 3.2 6.4 0.00 0.00 0.00 79 1015.7
20260905100043 12 327 4.8 12.9 0.00 0.00 0.00 79 1015.7
20260905094640 12 322 6.4 14.5 0.00 0.00 0.00 80 1015.7